This is the latest recevied weather packets stored in our database for station/object K4HOG. If no packets are shown the sender has not sent any weather packets the latest 10 day(s).
| Time | Temp. | Humidity | Pressure | Rain* | Wind** | Luminosity | Snow |
|---|---|---|---|---|---|---|---|
| 1777387287 | 24.44° C | 78% | 1020.7 hPa | 0 mm | - | 189 W/m² | - |
| 1777386980 | 23.89° C | 80% | 1020.8 hPa | 0 mm | - | 199 W/m² | - |
| 1777386679 | 23.89° C | 79% | 1020.6 hPa | 0 mm | - | 227 W/m² | - |
| 1777386375 | 23.89° C | 80% | 1020.4 hPa | 0 mm | - | 177 W/m² | - |
| 1777386073 | 23.33° C | 80% | 1020.4 hPa | 0 mm | - | 187 W/m² | - |
| 1777385769 | 23.33° C | 82% | 1020.4 hPa | 0 mm | - | 100 W/m² | - |
| 1777385466 | 22.78° C | 84% | 1020.4 hPa | 0 mm | - | 215 W/m² | - |
| 1777385162 | 22.22° C | 84% | 1020.4 hPa | 0 mm | - | 234 W/m² | - |
| 1777384858 | 22.22° C | 85% | 1020.2 hPa | 0 mm | - | 220 W/m² | - |
| 1777384556 | 22.22° C | 85% | 1020.4 hPa | 0 mm | - | 209 W/m² | - |
| 1777384250 | 22.22° C | 86% | 1020.4 hPa | 0 mm | - | 213 W/m² | - |
| 1777383946 | 21.67° C | 88% | 1020.4 hPa | 0 mm | - | 302 W/m² | - |
| 1777383642 | 21.67° C | 88% | 1020.2 hPa | 0 mm | - | 231 W/m² | - |
| 1777383339 | 21.11° C | 90% | 1020.1 hPa | 0 mm | - | 226 W/m² | - |
| 1777383036 | 20.56° C | 91% | 1020.1 hPa | 0 mm | - | 218 W/m² | - |
| 1777382732 | 20.56° C | 92% | 1020 hPa | 0 mm | - | 130 W/m² | - |
| 1777382427 | 20° C | 92% | 1020 hPa | 0 mm | - | 180 W/m² | - |
| 1777382125 | 20° C | 94% | 1019.9 hPa | 0 mm | - | 182 W/m² | - |
| 1777381822 | 19.44° C | 94% | 1020 hPa | 0 mm | - | 169 W/m² | - |
| 1777381520 | 19.44° C | 94% | 1019.9 hPa | 0 mm | - | 161 W/m² | - |
| 1777381216 | 19.44° C | 94% | 1020 hPa | 0 mm | - | 125 W/m² | - |
| 1777380914 | 19.44° C | 94% | 1020 hPa | 0 mm | - | 125 W/m² | - |
| 1777380611 | 18.89° C | 94% | 1020.2 hPa | 0 mm | - | 115 W/m² | - |
| 1777380307 | 18.89° C | 94% | 1020.1 hPa | 0 mm | - | 112 W/m² | - |
| 1777380003 | 18.89° C | 94% | 1020 hPa | 0 mm | - | 113 W/m² | - |
* Rain latest hour (hover to see other rain measurements)
** Current wind speed in m/s (hover to see current wind gust speed)